RH
24 25 27 25 26 26 26 29 29 30 28 31 34 35 30 28 27 30 33 35 37 35 35 35 38 43 49 51 50 51 51 57 61 64 66 57 64 77 71 62 72 64 67 69
33 33 23 19 26 26 25 30 33 32 24 29 35 36 33 28 28 32 35 40 40 38 35 34 38 42 49 54 53 52 51 56 57 63 66 71 74 76 74 71 73 65 65 63
36 26 24 29 33 29 36 38 38 31 30 29 32 40 36 30 27 31 34 38 39 39 38 36 37 42 45 49 57 52 51 55 57 61 67 67 73 76 73 71 66 69 64 57
27 20 29 36 34 34 37 36 30 32 41 48 37 84 40 33 32 32 35 41 43 40 38 38 40 41 42 46 56 55 52 56 52 61 70 75 84 83 82 75 71 73 60 56
38 35 33 34 34 34 37 36 37 43 53 60 52 76 62 32 35 35 38 39 44 44 45 43 42 41 41 48 61 61 54 56 59 64 70 83 84 85 84 77 77 73 58 54
33 30 32 35 34 33 32 41 57 60 68 88 67 72 79 51 38 33 38 43 43 43 46 46 42 42 47 54 63 59 57 58 61 64 75 80 80 79 81 79 79 74 70 60
34 35 30 31 42 39 44 65 92 88 92 82 63 60 70 41 34 35 44 50 50 49 49 51 52 55 55 63 64 58 59 59 62 66 77 75 75 76 77 80 86 82 79 71
67 55 37 32 44 52 54 62 88 89 92 85 48 62 72 39 37 41 45 52 46 47 51 54 57 65 56 66 68 63 60 61 63 68 79 74 76 82 81 81 83 86 81 83
78 64 38 33 40 44 50 70 62 81 77 85 81 71 56 42 47 52 51 47 51 53 56 61 65 70 63 71 69 64 63 63 64 72 74 68 72 77 80 78 82 82 80 78
84 68 48 37 42 42 52 58 64 86 77 98 82 73 81 71 59 52 54 59 61 60 63 68 75 58 64 68 68 63 64 65 66 72 68 62 70 72 79 87 79 79 82 86
85 69 55 39 54 67 68 81 95 85 93 92 96 79 87 76 69 63 72 72 75 73 73 75 76 56 61 59 61 63 66 65 69 72 72 73 74 79 86 84 83 82 86 86
60 70 76 52 55 53 74 80 89 77 82 98 94 79 91 77 65 68 76 79 76 78 75 70 55 57 54 53 55 58 66 66 69 67 70 75 81 84 89 83 83 84 87 87
61 75 84 66 58 54 68 86 88 92 94 97 82 71 83 92 84 77 83 74 66 66 55 57 57 56 51 53 57 55 63 65 66 64 69 77 85 87 88 88 83 81 88 87
58 80 75 72 58 64 70 91 87 72 89 78 91 77 85 83 87 76 72 70 65 62 48 56 56 53 51 52 55 54 62 63 62 65 69 80 87 84 83 85 69 75 82 88
52 73 70 61 55 53 54 80 80 78 64 67 64 87 82 79 81 78 73 65 59 44 44 48 48 49 51 53 53 53 64 62 63 65 69 80 82 80 80 68 68 79 84 88
54 64 63 55 44 48 58 62 69 60 67 86 85 83 78 69 69 73 67 61 43 42 43 40 38 41 47 48 50 53 62 62 65 65 74 77 77 76 78 68 70 79 87 91
55 62 65 52 48 47 60 61 70 66 69 56 74 69 71 72 62 63 58 44 41 43 41 38 37 43 47 49 48 58 59 60 63 67 74 75 77 78 80 64 72 84 90 92
64 62 68 78 61 68 50 45 44 52 50 60 61 64 60 57 50 50 45 45 44 42 37 37 41 47 48 49 51 56 56 59 64 67 75 75 77 79 79 74 74 82 85 88
48 72 76 76 69 52 42 46 44 44 38 50 48 57 55 50 46 47 44 44 46 43 40 39 48 51 51 48 52 54 56 58 62 65 75 74 78 80 80 81 80 80 83 83
51 62 80 86 70 66 51 33 29 31 53 31 46 50 52 42 63 64 48 47 48 41 34 38 45 49 48 50 56 56 61 61 62 66 76 73 77 81 81 86 87 85 91 83
72 82 79 98 91 76 52 32 26 34 42 37 34 36 49 45 45 53 48 44 43 34 31 38 44 49 48 49 54 60 62 63 60 64 74 74 78 78 83 89 92 94 93 94
70 78 90 90 90 68 51 34 37 48 53 33 37 40 47 52 50 49 46 43 34 32 34 38 47 50 48 49 53 59 62 60 58 67 72 75 81 77 72 64 93 94 96 94
62 64 77 71 77 59 56 41 38 46 34 34 37 50 48 48 46 48 47 43 36 32 34 36 49 51 49 50 55 60 63 60 65 71 73 82 81 79 82 78 85 96 95 97
46 57 71 67 52 56 59 43 43 36 34 33 34 45 47 50 48 51 48 45 36 35 36 42 50 52 52 56 58 63 62 63 69 72 79 80 81 83 86 91 91 96 95 96
58 52 61 67 56 56 52 48 37 34 35 34 37 41 42 46 45 46 52 41 38 39 41 45 53 55 54 61 66 66 69 70 73 76 78 82 82 87 90 88 93 96 90 92
53 58 61 66 51 52 48 49 47 40 37 36 38 43 44 44 45 47 48 42 40 45 46 53 57 56 56 65 70 72 72 73 78 76 76 83 88 94 95 94 95 82 83 82
Wind_Speed
5 10 4 3 2 7 14 9 9 5 7 8 8 7 7 5 6 6 5 5 5 5 4 6 7 6 5 4 5 5 5 5 4 3 4 7 6 3 5 6 6 10 10 13
8 5 4 6 13 13 15 15 5 2 6 9 6 6 5 4 4 5 6 4 5 5 7 7 6 6 4 3 4 5 6 5 4 3 3 3 3 2 3 5 6 9 8 12
6 2 7 8 8 12 4 7 5 8 2 6 7 3 3 1 6 5 4 3 4 6 6 6 7 6 5 5 4 4 6 5 4 6 3 3 3 3 5 8 9 9 9 12
5 5 8 8 6 3 5 3 8 7 4 4 3 4 5 4 5 3 4 6 5 5 5 5 6 8 7 5 4 4 6 5 5 7 5 6 4 5 4 7 8 8 11 13
4 4 6 6 0 2 4 3 6 4 4 5 4 5 5 9 4 2 5 5 5 4 5 7 8 8 9 5 4 4 6 6 7 7 6 4 4 2 3 4 8 7 10 12
4 1 4 2 2 3 5 5 8 5 4 4 5 7 6 5 6 3 4 3 4 5 6 7 8 8 8 5 4 5 6 5 7 6 5 5 4 5 4 5 6 7 8 8
4 4 4 4 5 5 4 6 4 6 5 7 4 3 9 5 5 7 6 2 4 5 7 8 9 8 8 4 5 5 6 6 7 7 4 4 5 5 6 6 4 8 8 8
6 1 3 4 2 3 2 6 7 7 3 4 3 4 7 5 7 8 5 1 4 7 7 8 8 7 7 5 6 6 6 6 7 7 2 6 6 4 5 5 4 5 7 9
6 2 3 6 2 3 2 3 4 6 4 5 4 4 5 4 5 5 4 5 7 8 8 8 8 7 5 5 5 5 4 5 7 5 4 6 6 6 7 9 5 6 8 9
6 5 2 2 1 6 5 1 4 4 3 3 6 5 6 5 3 0 2 7 9 8 8 8 6 5 2 4 3 4 4 4 5 3 5 6 7 8 8 6 7 9 9 10
6 6 5 3 3 7 3 3 6 6 4 7 1 9 5 7 7 4 7 9 10 9 8 7 4 3 3 4 4 4 5 5 5 4 6 7 8 7 6 6 7 8 8 10
5 7 3 3 2 5 4 6 6 7 6 2 5 10 4 5 6 5 8 9 9 6 7 3 5 4 5 5 3 4 5 5 4 5 6 6 6 6 5 7 8 8 7 10
7 1 5 4 6 4 3 4 5 7 4 6 7 9 1 5 6 6 8 10 8 3 3 6 5 5 4 4 4 5 5 5 4 5 6 6 6 6 6 7 8 8 7 10
8 4 7 9 6 6 5 6 5 6 5 5 8 5 5 7 8 8 9 10 7 4 6 5 5 5 4 4 4 6 5 4 5 5 6 6 5 5 6 6 9 10 10 10
6 5 4 4 4 4 7 10 11 7 6 8 7 8 8 9 10 10 10 9 3 7 6 6 6 5 4 4 5 6 5 5 5 5 5 5 4 5 6 9 10 10 10 10
1 2 3 2 2 6 5 11 16 13 4 6 3 10 12 8 7 6 9 6 5 7 7 6 6 6 5 4 4 5 4 5 5 6 5 4 5 6 7 9 10 10 9 9
6 5 4 3 2 3 8 14 15 9 6 12 9 12 6 7 8 9 9 6 9 8 7 6 6 6 4 4 3 4 3 5 6 6 5 5 5 5 6 9 10 9 9 7
7 6 3 3 3 1 10 2 13 17 11 14 5 7 13 10 9 5 7 9 9 8 7 6 6 5 4 2 4 4 5 5 6 6 5 4 5 5 6 7 9 9 7 8
5 5 3 5 4 6 5 6 9 9 8 14 17 9 10 5 5 6 7 5 7 8 7 6 6 5 4 4 4 5 6 5 6 6 4 4 5 5 6 8 9 10 9 10
5 5 6 2 4 7 7 1 7 6 6 5 11 12 12 8 5 5 7 8 8 8 7 8 7 5 6 3 5 6 5 5 6 5 4 4 5 6 6 8 9 7 6 8
4 3 6 2 2 10 8 5 4 6 10 3 9 8 9 8 6 8 9 7 8 8 8 7 6 6 6 4 6 6 5 5 5 5 5 5 6 5 6 6 5 6 8 7
8 7 5 3 3 11 7 3 7 9 2 5 5 5 7 8 12 14 9 9 11 9 7 7 7 6 4 5 6 5 5 3 6 6 5 7 6 5 5 9 5 6 7 7
5 10 8 11 10 7 7 4 5 7 6 5 7 6 12 13 9 12 10 10 8 9 7 6 7 6 4 4 6 6 2 5 5 5 6 4 5 5 6 7 6 5 6 5
4 6 4 4 7 10 8 4 6 7 7 6 7 9 12 11 10 9 10 8 10 8 7 6 7 6 4 5 6 6 5 5 6 5 5 3 4 6 6 5 5 4 6 6
7 11 9 5 7 2 9 9 9 7 7 7 8 9 11 12 12 13 9 10 10 8 6 6 7 6 6 6 6 5 5 5 5 4 3 3 3 4 5 5 4 4 5 7
7 9 9 10 10 8 6 12 9 10 9 10 10 8 7 10 14 10 11 10 10 9 6 6 7 7 6 7 6 5 5 5 4 3 3 3 3 3 3 3 4 9 9 14
Wind_Direction
23 73 96 353 307 113 105 108 115 116 169 105 147 149 169 175 108 99 79 67 58 40 327 41 37 38 42 19 10 355 9 1 12 344 348 1 357 355 2 354 354 357 353 350
41 74 323 83 76 97 112 120 127 71 151 103 169 177 202 182 152 153 117 94 66 32 24 18 12 24 348 309 343 354 10 15 7 354 321 323 329 340 339 332 331 342 350 355
113 166 47 86 59 96 70 128 178 140 149 69 113 359 204 215 94 102 77 98 57 58 36 5 0 342 325 324 330 344 6 15 7 1 328 335 356 336 353 351 346 339 343 355
73 344 93 70 68 56 74 355 116 125 92 160 165 255 236 150 128 127 98 70 52 36 22 8 343 331 319 304 307 0 10 13 11 1 6 22 19 9 340 343 332 328 348 354
265 88 77 74 259 100 164 101 126 122 126 87 333 75 275 136 165 134 98 75 41 25 28 349 327 311 304 337 354 354 15 21 5 4 17 56 28 312 299 320 323 322 353 352
100 60 67 116 19 138 141 81 36 41 75 31 238 121 272 200 178 141 101 63 23 6 354 329 309 325 326 354 30 17 29 12 4 3 35 49 18 338 341 330 336 336 335 346
38 15 5 45 58 23 80 68 10 5 10 218 222 98 235 177 152 134 131 76 335 343 338 321 317 323 336 19 32 27 32 11 349 7 56 357 332 327 326 317 317 332 330 331
129 306 0 329 77 174 117 142 147 184 201 256 292 239 263 152 112 113 121 173 348 329 307 301 305 336 349 62 53 42 29 5 344 9 35 333 322 307 304 296 324 324 329 324
110 306 347 55 56 96 228 67 152 104 8 50 252 315 14 124 87 72 41 356 307 292 293 298 320 349 28 70 58 48 22 358 4 25 352 336 330 324 322 328 342 329 327 329
200 91 265 220 26 22 104 76 62 355 114 271 294 266 225 203 189 299 349 291 287 284 294 303 348 27 63 76 64 27 12 357 10 6 344 339 332 353 358 16 0 339 336 334
140 105 268 86 189 175 26 36 58 107 114 156 219 265 222 182 195 196 256 263 265 277 285 304 341 90 111 83 60 13 13 10 16 345 325 343 358 9 20 10 345 337 332 341
189 126 136 215 358 128 111 157 132 118 258 152 141 275 238 202 205 205 258 266 269 266 289 301 112 124 82 67 43 4 13 14 358 346 357 2 12 14 10 354 339 332 336 344
180 93 91 2 352 303 163 160 126 110 89 202 133 262 249 265 265 245 260 276 275 320 104 115 119 102 86 68 33 6 13 358 343 348 16 17 20 11 353 342 333 328 348 349
93 136 161 180 198 150 165 166 170 125 114 187 227 268 291 257 246 256 259 261 274 272 154 138 122 107 89 65 31 0 8 350 341 351 23 32 23 3 349 331 348 350 357 350
119 147 179 203 138 142 168 171 181 183 189 160 244 207 231 222 224 236 236 261 260 145 150 158 121 109 95 63 22 5 14 349 333 356 37 38 15 352 339 2 351 357 354 345
141 149 127 316 224 217 217 192 191 205 215 262 194 274 210 229 234 255 241 246 168 148 162 128 116 104 89 67 26 22 14 345 349 357 47 42 14 359 353 1 359 357 351 344
127 125 96 244 200 43 319 213 186 190 197 200 205 222 182 213 217 225 235 193 154 163 139 129 117 123 118 81 45 35 0 358 3 2 55 37 8 359 345 1 2 353 349 345
129 115 111 163 61 324 244 248 190 200 210 209 206 189 189 207 219 228 180 145 150 139 133 134 130 136 124 96 47 57 21 13 5 7 64 24 2 357 347 359 4 357 355 356
125 112 122 147 202 293 271 195 165 171 263 196 216 190 201 148 81 34 115 146 146 148 152 149 149 145 133 94 71 68 28 14 9 12 73 20 359 356 358 356 2 7 2 359
112 86 117 149 163 225 240 164 130 98 290 211 187 188 191 138 150 219 169 136 134 137 144 139 147 137 122 100 94 69 35 27 359 12 82 25 5 7 4 11 2 5 349 351
144 66 152 118 229 285 237 185 120 102 233 214 172 178 155 180 188 153 149 137 141 150 145 139 141 144 141 131 97 73 57 25 348 31 79 37 8 10 12 10 352 352 348 331
157 143 177 115 108 271 187 111 170 213 220 140 123 132 119 122 127 143 146 136 143 147 136 142 134 143 148 126 103 88 70 358 26 65 59 40 8 1 358 11 354 339 343 345
187 178 180 180 209 229 238 190 208 170 148 167 125 146 135 137 147 156 148 150 153 146 142 146 140 137 139 123 114 94 64 51 51 67 59 40 1 354 352 357 5 342 344 348
230 164 182 99 239 226 233 249 184 173 166 163 145 150 152 151 147 144 149 148 140 144 145 139 134 139 133 115 99 97 72 67 74 54 55 35 12 357 347 349 348 344 1 8
193 155 167 256 273 278 228 208 201 202 170 159 153 155 161 146 159 157 156 151 149 149 148 143 138 141 137 122 102 92 86 75 75 59 35 3 4 3 351 346 343 352 351 23
188 170 169 212 209 179 220 206 195 184 181 178 158 157 160 150 158 158 157 153 150 153 145 132 138 137 134 125 116 107 103 94 87 51 350 348 355 337 337 340 333 344 13 16